Regional Weather Roundup
Issued by NWS Albany, NY

Home | Current Version | Previous Version | Text Only | Print | Product List | Glossary On
Versions: 1 2 3 4 5 6 7 8 9 10 11 12 13 14 15 16 17 18 19 20 21 22 23 24 25 26 27 28 29
000
ASUS41 KALY 242210
RWRALY

NEW YORK STATE HOURLY WEATHER ROUNDUP
NATIONAL WEATHER SERVICE ALBANY NY
600 PM EDT WED AUG 24 2016

NOTE: "FAIR" INDICATES FEW OR NO CLOUDS BELOW 12,000 FEET WITH NO
SIGNIFICANT WEATHER AND/OR NO OBSTRUCTIONS TO VISIBILITY.

NYZ032-033-038>043-046>054-057>066-NYZ062>081-082-084-242300-
EAST


CITY           SKY/WX    TMP DP  RH WIND       PRES   REMARKS
ALBANY         MOSUNNY   83  60  45 S12       30.13F
GLENS FALLS    SUNNY     81  63  54 S9        30.12F
POUGHKEEPSIE   SUNNY     86  62  44 S6        30.14F
NEWBURGH       MOSUNNY   82  64  54 W7        30.18F
MONTGOMERY     SUNNY     83  63  50 SW9       30.16S
WHITE PLAINS   SUNNY     81  61  50 S9        30.18S
ISLIP          MOSUNNY   79  63  57 S14       30.19S
NEW YORK CITY  MOSUNNY   82  60  47 S16       30.16F
CENTRAL PARK     N/A     84  61  45 MISG        N/A
$$

NYZ005>009-017-018-044>046-055-056-242300-
CENTRAL


CITY           SKY/WX    TMP DP  RH WIND       PRES   REMARKS
FULTON         SUNNY     85  63  47 S8        30.07F
SYRACUSE       PTSUNNY   84  61  45 S12       30.07F
ROME           SUNNY     84  63  49 S7        30.11F
ELMIRA         SUNNY     83  60  45 S12       30.11F
BINGHAMTON     SUNNY     78  58  49 SW9       30.17F
MONTICELLO     SUNNY     79  63  57 MISG      30.22S
$$

NYZ026>034-041>043-087-242300-
NORTH


CITY           SKY/WX    TMP DP  RH WIND       PRES   REMARKS
WATERTOWN      SUNNY     84  60  44 SW8       30.06F
FORT DRUM      NOT AVBL
MASSENA        SUNNY     83  60  45 SW7       30.05F
SARANAC LAKE   SUNNY     81  55  40 SW13      30.13S
PLATTSBURGH    SUNNY     81  67  62 SE10      30.06S
$$

NYZ001>004-010>016-019>021-085-242300-
WEST


CITY           SKY/WX    TMP DP  RH WIND       PRES   REMARKS
NIAGARA FALLS  CLOUDY    84  59  42 SW15      30.05F
BUFFALO        PTSUNNY   81  59  47 SW14      30.07F
DUNKIRK        CLOUDY    79  65  62 CALM      30.07F
JAMESTOWN      SUNNY     77  55  47 SW10      30.13F
WELLSVILLE     MOSUNNY   80  59  48 SW14      30.18F
ROCHESTER      PTSUNNY   87  59  38 SW14      30.06F
PENN YAN       SUNNY     85  59  41 S10       30.11S
$$

             KEY
       WCI = WIND CHILL INDEX
       VSB = VISIBILITY
       HX  = HEAT INDEX
$$




USA.gov is the U.S. government's official web portal to all federal, state and local government web resources and services.